period_start,C,m1,H,J0,J1,J2,J3,J4,J5,JA,JB,JC,JD,JJ,JK,JN,#
2014-08-09 00:02:53,0.01,0.01,0.00,25.59,29.71,31.92,9.40,39.17,1011.72,2030.01,3443.00,3308.77,3593.02,500.40,490.35,1.01,0000 0000 0000 0000 000000
2014-08-09 00:07:54,0.04,0.01,0.00,25.58,29.75,31.97,9.42,39.27,1011.73,2030.00,3442.40,3308.06,3592.65,500.35,490.31,1.05,0000 0000 0000 0000 000000
2014-08-09 00:12:54,0.01,0.01,0.00,25.57,29.77,32.00,9.45,39.23,1011.69,2030.00,3442.00,3307.99,3592.03,500.38,490.15,1.09,0000 0000 0000 0000 000000
2014-08-09 00:17:56,0.04,0.01,0.00,25.59,29.79,32.03,9.42,39.24,1011.67,2030.00,3441.40,3307.50,3591.69,499.76,489.81,1.13,0000 0000 0000 0000 000000
2014-08-09 00:22:57,0.01,0.01,0.00,25.62,29.82,32.04,9.40,39.34,1011.68,2030.00,3440.93,3307.01,3591.03,500.19,490.26,1.18,0000 0000 0000 0000 000000
2014-08-09 00:27:58,0.05,0.01,0.00,25.66,29.85,32.07,9.37,39.24,1011.71,2029.97,3440.16,3306.57,3590.39,500.06,490.34,1.22,0000 0000 0000 0000 000000
2014-08-09 00:32:59,0.01,0.02,0.00,25.71,29.87,32.10,9.43,39.27,1011.73,2029.89,3439.54,3306.01,3589.75,500.07,489.92,1.26,0000 0000 0000 0000 000000
2014-08-09 00:38:00,0.01,0.02,0.00,25.75,29.90,32.11,9.38,39.28,1011.73,2029.49,3438.76,3305.24,3588.71,499.62,489.40,1.30,0000 0000 0000 0000 000000
2014-08-09 00:43:01,0.01,0.02,0.00,25.78,29.93,32.12,9.45,39.27,1011.72,2029.14,3438.03,3304.57,3588.01,499.77,489.51,1.34,0000 0000 0000 0000 000000
2014-08-09 00:48:02,0.03,0.02,0.00,25.83,29.96,32.15,9.40,39.25,1011.68,2029.01,3437.30,3304.01,3587.37,499.68,489.41,1.39,0000 0000 0000 0000 000000
2014-08-09 00:53:03,0.05,0.02,0.00,25.86,29.98,32.19,9.45,39.26,1011.60,2029.00,3436.52,3303.24,3586.82,500.31,489.82,1.43,0000 0000 0000 0000 000000
2014-08-09 00:58:05,0.01,0.02,0.00,25.91,30.01,32.20,9.43,39.28,1011.55,2029.00,3435.99,3302.98,3586.06,499.79,489.23,1.47,0000 0000 0000 0000 000000
2014-08-09 01:03:06,0.05,0.02,0.00,25.95,30.04,32.23,9.40,39.18,1011.62,2028.99,3435.29,3302.40,3585.52,500.28,489.54,1.51,0000 0000 0000 0000 000000
2014-08-09 01:08:07,0.03,0.02,0.00,25.99,30.06,32.27,9.44,39.24,1011.61,2028.92,3434.32,3301.71,3584.80,499.91,489.26,1.55,0000 0000 0000 0000 000000
2014-08-09 01:13:08,0.03,0.03,0.00,26.05,30.09,32.29,9.45,39.19,1011.63,2028.83,3433.37,3301.01,3584.03,500.07,489.25,1.59,0000 0000 0000 0000 000000
2014-08-09 01:18:09,0.02,0.03,0.00,26.10,30.12,32.33,9.40,39.12,1011.67,2028.47,3432.44,3300.23,3583.25,500.04,489.20,1.64,0000 0000 0000 0000 000000
2014-08-09 01:23:10,0.01,0.03,0.00,26.14,30.15,32.35,9.43,39.20,1011.57,2028.10,3431.54,3299.61,3582.72,500.21,489.09,1.68,0000 0000 0000 0000 000000
2014-08-09 01:28:11,0.02,0.03,0.00,26.18,30.18,32.39,9.43,39.13,1011.30,2028.02,3430.77,3299.01,3582.01,500.65,489.40,1.72,0000 0000 0000 0000 000000
2014-08-09 01:33:13,0.04,0.03,0.00,26.22,30.21,32.41,9.41,39.11,1011.26,2028.00,3430.05,3298.55,3581.52,500.17,488.93,1.76,0000 0000 0000 0000 000000
2014-08-09 01:38:14,0.02,0.03,0.00,26.25,30.23,32.45,9.43,38.98,1011.26,2028.00,3429.44,3298.01,3581.00,500.47,489.10,1.80,0000 0000 0000 0000 000000
2014-08-09 01:43:15,0.03,0.03,0.00,26.29,30.26,32.48,9.41,38.98,1011.25,2028.00,3428.98,3297.70,3580.51,499.57,488.27,1.85,0000 0000 0000 0000 000000
2014-08-09 01:48:16,0.03,0.03,0.00,26.32,30.29,32.50,9.42,38.85,1011.24,2027.99,3428.31,3297.04,3580.00,500.01,488.58,1.89,0000 0000 0000 0000 000000
2014-08-09 01:53:17,0.02,0.03,0.00,26.38,30.32,32.53,9.39,38.93,1011.24,2027.98,3427.87,3296.83,3579.44,500.27,488.66,1.93,0000 0000 0000 0000 000000
2014-08-09 01:58:19,-0.01,0.04,0.00,26.41,30.36,32.56,9.37,39.02,1011.24,2027.66,3427.10,3296.08,3578.98,499.69,488.24,1.97,0000 0000 0000 0000 000000
2014-08-09 02:03:20,-0.02,0.03,0.00,26.47,30.39,32.60,9.40,39.04,1011.22,2027.17,3426.90,3295.98,3578.28,500.06,488.39,2.01,0000 0000 0000 0000 000000
2014-08-09 02:08:21,0.02,0.03,0.00,26.49,30.42,32.64,9.40,39.14,1011.18,2027.04,3426.12,3295.44,3578.00,499.97,488.38,2.05,0000 0000 0000 0000 000000
2014-08-09 02:13:22,0.02,0.04,0.00,26.52,30.45,32.68,9.43,38.98,1011.00,2027.00,3425.74,3295.00,3577.39,500.37,488.45,2.10,0000 0000 0000 0000 000000
2014-08-09 02:18:23,0.03,0.04,0.00,26.55,30.48,32.71,9.44,38.88,1011.10,2026.99,3425.05,3294.42,3576.99,500.44,488.76,2.14,0000 0000 0000 0000 000000
2014-08-09 02:23:24,0.02,0.04,0.00,26.60,30.51,32.74,9.39,38.92,1010.92,2026.98,3424.78,3294.01,3576.58,500.06,487.99,2.18,0000 0000 0000 0000 000000
2014-08-09 02:28:25,0.02,0.04,0.00,26.62,30.55,32.77,9.36,39.01,1010.77,2026.87,3424.05,3293.62,3576.01,500.14,488.05,2.22,0000 0000 0000 0000 000000
2014-08-09 02:33:26,-0.01,0.04,0.00,26.65,30.58,32.81,9.32,38.93,1010.76,2026.65,3423.69,3293.04,3575.60,499.56,487.44,2.26,0000 0000 0000 0000 000000
2014-08-09 02:38:28,-0.03,0.04,0.00,26.72,30.61,32.84,9.39,39.03,1010.76,2026.16,3423.03,3292.92,3575.02,499.97,487.67,2.31,0000 0000 0000 0000 000000
2014-08-09 02:43:29,0.02,0.04,0.00,26.75,30.65,32.87,9.41,38.93,1010.76,2026.01,3422.88,3292.27,3574.74,500.37,488.03,2.35,0000 0000 0000 0000 000000
2014-08-09 02:48:30,0.02,0.04,0.00,26.78,30.68,32.91,9.36,38.94,1010.76,2026.00,3422.21,3292.01,3574.07,499.81,487.33,2.39,0000 0000 0000 0000 000000
2014-08-09 02:53:31,0.00,0.04,0.00,26.81,30.72,32.95,9.33,38.88,1010.76,2025.99,3421.97,3291.91,3573.95,499.95,487.61,2.43,0000 0000 0000 0000 000000
2014-08-09 02:58:31,0.05,0.04,0.00,26.84,30.75,32.98,9.41,38.96,1010.76,2025.97,3421.27,3291.22,3573.23,500.32,487.78,2.47,0000 0000 0000 0000 000000
2014-08-09 03:03:32,0.04,0.04,0.00,26.88,30.79,33.01,9.36,39.01,1010.76,2025.92,3420.75,3290.29,3572.14,499.99,487.44,2.51,0000 0000 0000 0000 000000
2014-08-09 03:08:33,-0.04,0.04,0.00,26.94,30.82,33.05,9.34,38.98,1010.76,2025.52,3420.10,3290.01,3571.99,499.95,487.24,2.56,0000 0000 0000 0000 000000
2014-08-09 03:13:34,-0.02,0.04,0.00,26.99,30.86,33.08,9.34,39.05,1010.75,2025.10,3420.00,3289.97,3571.73,500.16,487.53,2.60,0000 0000 0000 0000 000000
2014-08-09 03:18:35,0.03,0.04,0.00,27.05,30.89,33.11,9.44,39.00,1010.76,2025.02,3419.83,3289.35,3571.06,500.59,487.82,2.64,0000 0000 0000 0000 000000
2014-08-09 03:23:37,0.02,0.04,0.00,27.10,30.93,33.16,9.33,39.04,1010.76,2025.00,3419.24,3289.01,3570.73,499.98,487.06,2.68,0000 0000 0000 0000 000000
2014-08-09 03:28:38,0.01,0.04,0.00,27.13,30.97,33.19,9.36,39.17,1010.76,2024.98,3418.98,3288.72,3570.06,500.01,487.05,2.72,0000 0000 0000 0000 000000
2014-08-09 03:33:39,0.01,0.05,0.00,27.17,31.01,33.23,9.32,39.08,1010.76,2024.91,3418.62,3288.06,3570.00,499.72,486.67,2.77,0000 0000 0000 0000 000000
2014-08-09 03:38:40,-0.04,0.04,0.00,27.23,31.04,33.27,9.31,39.02,1010.76,2024.49,3418.10,3288.00,3569.74,499.82,486.86,2.81,0000 0000 0000 0000 000000
2014-08-09 03:43:41,-0.02,0.04,0.00,27.25,31.08,33.32,9.44,38.89,1010.76,2024.07,3417.99,3287.89,3569.05,500.03,486.83,2.85,0000 0000 0000 0000 000000
2014-08-09 03:48:42,0.03,0.04,0.00,27.20,31.12,33.38,9.35,38.80,1010.76,2024.00,3417.62,3287.19,3568.94,500.04,486.87,2.89,0000 0000 0000 0000 000000
2014-08-09 03:53:43,0.01,0.04,0.00,27.13,31.15,33.42,9.35,38.67,1010.76,2024.00,3417.04,3287.00,3568.46,499.93,486.91,2.93,0000 0000 0000 0000 000000
2014-08-09 03:58:44,0.00,0.04,0.00,27.13,31.18,33.46,9.42,38.96,1010.73,2023.99,3417.00,3286.97,3568.02,500.35,487.41,2.97,0000 0000 0000 0000 000000
2014-08-09 04:03:45,0.00,0.04,0.00,27.17,31.21,33.47,9.35,38.83,1010.75,2023.94,3416.94,3286.73,3567.99,499.87,487.06,3.02,0000 0000 0000 0000 000000
2014-08-09 04:08:46,0.00,0.05,0.00,27.20,31.23,33.48,9.33,38.88,1010.74,2023.77,3416.46,3286.18,3567.76,500.08,486.94,3.06,0000 0000 0000 0000 000000
2014-08-09 04:13:47,-0.02,0.04,0.00,27.21,31.26,33.49,9.38,38.91,1010.75,2023.28,3416.01,3286.00,3567.14,500.11,487.03,3.10,0000 0000 0000 0000 000000
2014-08-09 04:18:48,-0.01,0.04,0.00,27.25,31.28,33.51,9.40,38.82,1010.76,2023.08,3415.88,3285.88,3566.99,500.39,487.11,3.14,0000 0000 0000 0000 000000
2014-08-09 04:23:50,0.04,0.04,0.00,27.29,31.31,33.53,9.33,38.81,1010.76,2023.01,3415.19,3285.25,3566.60,499.80,486.61,3.18,0000 0000 0000 0000 000000
2014-08-09 04:28:51,0.01,0.05,0.00,27.33,31.33,33.54,9.32,38.63,1010.76,2023.01,3415.04,3285.04,3566.19,499.92,486.62,3.23,0000 0000 0000 0000 000000
2014-08-09 04:33:51,0.00,0.05,0.00,27.36,31.36,33.57,9.40,38.73,1010.76,2023.00,3414.87,3284.98,3565.99,499.92,486.36,3.27,0000 0000 0000 0000 000000
2014-08-09 04:38:52,0.05,0.05,0.00,27.40,31.38,33.59,9.34,38.68,1010.69,2023.00,3414.11,3284.47,3565.34,499.91,486.51,3.31,0000 0000 0000 0000 000000
2014-08-09 04:43:54,0.01,0.05,0.00,27.42,31.41,33.61,9.39,38.77,1010.55,2022.96,3413.68,3284.01,3564.96,500.15,486.57,3.35,0000 0000 0000 0000 000000
2014-08-09 04:48:55,0.02,0.05,0.00,27.46,31.44,33.65,9.32,38.69,1010.47,2022.83,3413.03,3283.70,3564.31,500.15,486.62,3.39,0000 0000 0000 0000 000000
2014-08-09 04:53:56,0.00,0.05,0.00,27.50,31.46,33.68,9.33,38.75,1010.37,2022.57,3412.48,3283.05,3563.82,499.50,485.93,3.43,0000 0000 0000 0000 000000
2014-08-09 04:58:57,-0.00,0.05,0.00,27.53,31.50,33.70,9.42,38.81,1010.54,2022.17,3411.53,3282.57,3563.05,500.25,486.58,3.48,0000 0000 0000 0000 000000
2014-08-09 05:03:58,0.01,0.05,0.00,27.56,31.53,33.73,9.37,38.76,1010.66,2022.02,3411.01,3282.01,3562.67,499.99,486.27,3.52,0000 0000 0000 0000 000000
2014-08-09 05:08:59,0.01,0.05,0.00,27.59,31.56,33.76,9.30,38.77,1010.73,2022.00,3410.95,3281.97,3562.07,499.67,485.97,3.56,0000 0000 0000 0000 000000
2014-08-09 05:14:01,0.02,0.05,0.00,27.64,31.59,33.79,9.36,38.84,1010.74,2022.00,3410.44,3281.69,3561.99,500.36,486.44,3.60,0000 0000 0000 0000 000000
2014-08-09 05:19:01,0.03,0.05,0.00,27.67,31.62,33.82,9.36,38.72,1010.75,2021.98,3410.02,3281.08,3561.56,500.36,486.54,3.64,0000 0000 0000 0000 000000
2014-08-09 05:24:02,-0.02,0.05,0.00,27.70,31.65,33.84,9.34,38.64,1010.75,2021.85,3409.94,3280.99,3561.04,500.29,486.40,3.69,0000 0000 0000 0000 000000
2014-08-09 05:29:03,-0.01,0.05,0.00,27.74,31.68,33.88,9.34,38.78,1010.72,2021.54,3409.35,3280.91,3560.99,499.79,486.04,3.73,0000 0000 0000 0000 000000
2014-08-09 05:34:04,-0.01,0.05,0.00,27.78,31.71,33.93,9.33,38.59,1010.65,2021.23,3409.06,3280.39,3560.76,500.15,485.90,3.77,0000 0000 0000 0000 000000
2014-08-09 05:39:05,-0.00,0.05,0.00,27.78,31.74,33.95,9.33,38.73,1010.65,2021.04,3408.99,3280.01,3560.07,499.49,485.41,3.81,0000 0000 0000 0000 000000
2014-08-09 05:44:06,0.00,0.05,0.00,27.82,31.77,33.97,9.30,38.71,1010.74,2021.00,3408.73,3279.99,3560.00,499.78,485.64,3.85,0000 0000 0000 0000 000000
2014-08-09 05:49:07,0.01,0.05,0.00,27.85,31.80,34.00,9.33,38.63,1010.72,2021.00,3408.16,3279.82,3559.92,500.06,485.89,3.89,0000 0000 0000 0000 000000
2014-08-09 05:54:08,0.03,0.05,0.00,27.89,31.83,34.04,9.36,38.71,1010.72,2020.99,3408.00,3279.19,3559.22,499.96,485.78,3.94,0000 0000 0000 0000 000000
2014-08-09 05:59:10,0.00,0.05,0.00,27.92,31.86,34.06,9.43,38.65,1010.58,2020.95,3407.91,3279.00,3559.00,500.44,485.96,3.98,0000 0000 0000 0000 000000
2014-08-09 06:04:11,-0.01,0.05,0.00,27.94,31.89,34.10,9.31,38.69,1010.54,2020.79,3407.29,3278.95,3558.84,500.11,485.69,4.02,0000 0000 0000 0000 000000
2014-08-09 06:09:11,-0.01,0.05,0.00,27.98,31.91,34.12,9.36,38.84,1010.53,2020.40,3407.00,3278.44,3558.17,500.21,485.88,4.06,0000 0000 0000 0000 000000
2014-08-09 06:14:12,-0.02,0.05,0.00,28.00,31.94,34.14,9.31,38.80,1010.74,2020.05,3406.84,3278.01,3557.99,500.00,485.73,4.10,0000 0000 0000 0000 000000
2014-08-09 06:19:13,0.01,0.05,0.00,28.02,31.97,34.18,9.30,38.69,1010.76,2020.01,3406.37,3278.00,3557.91,499.84,485.49,4.14,0000 0000 0000 0000 000000
2014-08-09 06:24:14,0.01,0.05,0.00,28.03,32.00,34.21,9.37,38.83,1010.76,2020.00,3406.07,3277.96,3557.40,500.15,485.72,4.19,0000 0000 0000 0000 000000
2014-08-09 06:29:15,0.02,0.05,0.00,28.07,32.03,34.24,9.35,38.87,1010.76,2020.00,3406.00,3277.52,3557.04,500.08,485.71,4.23,0000 0000 0000 0000 000000
2014-08-09 06:34:16,0.01,0.06,0.00,28.11,32.06,34.26,9.41,38.81,1010.76,2019.99,3405.84,3277.04,3556.97,500.49,485.96,4.27,0000 0000 0000 0000 000000
2014-08-09 06:39:17,0.01,0.06,0.00,28.12,32.09,34.28,9.37,38.85,1010.76,2019.96,3405.23,3276.99,3556.65,499.98,485.34,4.31,0000 0000 0000 0000 000000
2014-08-09 06:44:18,-0.00,0.06,0.00,28.14,32.11,34.31,9.32,38.79,1010.76,2019.81,3405.00,3276.77,3556.02,499.88,485.25,4.35,0000 0000 0000 0000 000000
2014-08-09 06:49:20,-0.03,0.06,0.00,28.17,32.14,34.35,9.32,38.61,1010.76,2019.35,3404.86,3276.14,3555.98,499.89,485.23,4.40,0000 0000 0000 0000 000000
2014-08-09 06:54:21,0.01,0.05,0.00,28.18,32.17,34.37,9.31,38.71,1010.76,2019.07,3404.19,3276.00,3555.52,500.01,485.06,4.44,0000 0000 0000 0000 000000
2014-08-09 06:59:22,0.00,0.06,0.00,28.20,32.20,34.40,9.27,38.62,1010.76,2019.00,3404.00,3275.98,3555.06,500.03,485.37,4.48,0000 0000 0000 0000 000000
2014-08-09 07:04:23,0.01,0.06,0.00,28.24,32.22,34.43,9.32,38.61,1010.76,2019.00,3403.96,3275.74,3555.00,500.10,485.34,4.52,0000 0000 0000 0000 000000
2014-08-09 07:09:24,0.04,0.06,0.00,28.25,32.25,34.44,9.28,38.77,1010.75,2019.00,3403.20,3275.08,3554.60,500.02,485.31,4.56,0000 0000 0000 0000 000000
2014-08-09 07:14:25,0.01,0.06,0.00,28.29,32.27,34.47,9.37,38.75,1010.73,2019.00,3402.82,3274.96,3554.02,500.54,485.52,4.61,0000 0000 0000 0000 000000
2014-08-09 07:19:26,0.02,0.06,0.00,28.33,32.30,34.49,9.31,38.80,1010.75,2018.98,3402.14,3274.57,3553.88,500.28,485.26,4.65,0000 0000 0000 0000 000000
2014-08-09 07:24:27,0.02,0.06,0.00,28.37,32.32,34.52,9.33,38.77,1010.70,2018.89,3401.99,3274.03,3553.11,500.03,484.99,4.69,0000 0000 0000 0000 000000
2014-08-09 07:29:28,-0.03,0.06,0.00,28.39,32.35,34.54,9.35,38.94,1010.63,2018.65,3401.79,3274.00,3553.00,500.33,485.40,4.73,0000 0000 0000 0000 000000
2014-08-09 07:34:29,-0.01,0.06,0.00,28.44,32.37,34.55,9.33,38.99,1010.65,2018.32,3401.13,3273.92,3552.95,500.21,485.02,4.77,0000 0000 0000 0000 000000
2014-08-09 07:39:31,-0.00,0.06,0.00,28.47,32.40,34.59,9.30,38.89,1010.65,2018.08,3401.00,3273.32,3552.46,499.75,484.75,4.81,0000 0000 0000 0000 000000
2014-08-09 07:44:31,0.00,0.06,0.00,28.50,32.42,34.61,9.32,38.99,1010.54,2018.00,3400.94,3273.03,3552.03,500.04,484.81,4.86,0000 0000 0000 0000 000000
2014-08-09 07:49:32,0.01,0.06,0.00,28.54,32.45,34.63,9.31,38.98,1010.48,2018.00,3400.43,3272.98,3551.99,499.94,484.54,4.90,0000 0000 0000 0000 000000
2014-08-09 07:54:33,0.01,0.06,0.00,28.58,32.47,34.66,9.29,39.07,1010.64,2017.99,3400.03,3272.87,3551.83,500.14,484.67,4.94,0000 0000 0000 0000 000000
2014-08-09 07:59:34,0.02,0.06,0.00,28.64,32.50,34.68,9.28,38.94,1010.52,2017.94,3400.00,3272.33,3551.21,499.88,484.35,4.98,0000 0000 0000 0000 000000
2014-08-09 08:04:35,-0.01,0.06,0.00,28.68,32.52,34.71,9.27,38.95,1010.36,2017.75,3399.99,3272.02,3551.00,500.07,484.35,5.02,0000 0000 0000 0000 000000
2014-08-09 08:09:36,-0.03,0.06,0.00,28.70,32.55,34.74,9.35,38.99,1010.37,2017.44,3399.60,3272.00,3550.89,500.23,484.52,5.06,0000 0000 0000 0000 000000
2014-08-09 08:14:37,0.00,0.06,0.00,28.75,32.58,34.77,9.37,38.96,1010.30,2017.13,3399.08,3271.96,3550.31,500.09,484.23,5.11,0000 0000 0000 0000 000000
2014-08-09 08:19:38,0.01,0.06,0.00,28.80,32.61,34.80,9.28,38.96,1010.31,2017.04,3399.00,3271.53,3550.01,499.72,483.96,5.15,0000 0000 0000 0000 000000
2014-08-09 08:24:39,0.00,0.06,0.00,28.85,32.64,34.83,9.35,39.08,1010.31,2017.00,3398.87,3271.05,3549.98,500.17,484.17,5.19,0000 0000 0000 0000 000000
2014-08-09 08:29:40,0.03,0.06,0.00,28.89,32.66,34.86,9.34,39.05,1010.36,2017.00,3398.15,3270.99,3549.52,500.01,483.87,5.23,0000 0000 0000 0000 000000
2014-08-09 08:34:41,0.01,0.06,0.00,28.91,32.70,34.90,9.24,39.05,1010.48,2016.99,3398.00,3270.74,3549.02,499.80,483.96,5.27,0000 0000 0000 0000 000000
2014-08-09 08:39:42,0.00,0.06,0.00,28.92,32.72,34.93,9.30,39.10,1010.65,2016.89,3397.88,3270.08,3548.98,499.86,483.85,5.32,0000 0000 0000 0000 000000
2014-08-09 08:44:43,-0.02,0.06,0.00,28.95,32.76,34.96,9.30,39.09,1010.67,2016.50,3397.21,3270.00,3548.50,500.01,484.12,5.36,0000 0000 0000 0000 000000
2014-08-09 08:49:45,-0.02,0.06,0.00,28.97,32.79,35.00,9.31,39.17,1010.74,2016.18,3396.99,3269.83,3548.02,500.15,484.20,5.40,0000 0000 0000 0000 000000
2014-08-09 08:54:45,0.02,0.06,0.00,28.99,32.81,35.04,9.34,39.07,1010.75,2016.02,3396.73,3269.14,3547.91,500.04,484.21,5.44,0000 0000 0000 0000 000000
2014-08-09 08:59:47,0.04,0.06,0.00,29.00,32.84,35.06,9.39,39.17,1010.76,2016.00,3395.85,3268.79,3547.09,500.61,484.39,5.48,0000 0000 0000 0000 000000
2014-08-09 09:04:48,0.04,0.06,0.00,29.03,32.87,35.09,9.28,39.14,1010.76,2016.00,3395.06,3268.06,3546.40,500.09,484.09,5.52,0000 0000 0000 0000 000000
2014-08-09 09:09:49,0.00,0.06,0.00,29.06,32.90,35.12,9.33,39.23,1010.76,2016.00,3395.00,3268.00,3546.02,500.16,484.04,5.57,0000 0000 0000 0000 000000
2014-08-09 09:14:50,0.00,0.06,0.00,29.09,32.93,35.14,9.35,39.16,1010.76,2015.98,3394.81,3267.93,3545.98,500.35,484.18,5.61,0000 0000 0000 0000 000000
2014-08-09 09:19:51,0.02,0.07,0.00,29.10,32.96,35.17,9.43,39.26,1010.76,2015.86,3394.11,3267.33,3545.49,500.21,484.16,5.65,0000 0000 0000 0000 000000
2014-08-09 09:24:52,-0.04,0.07,0.00,29.14,32.98,35.20,9.30,39.03,1010.76,2015.48,3394.00,3267.02,3545.04,499.72,483.47,5.69,0000 0000 0000 0000 000000
2014-08-09 09:29:53,-0.02,0.06,0.00,29.16,33.00,35.21,9.30,39.06,1010.76,2015.22,3393.98,3267.00,3545.00,499.98,483.61,5.73,0000 0000 0000 0000 000000
2014-08-09 09:34:54,0.00,0.06,0.00,29.15,33.03,35.23,9.37,39.10,1010.76,2015.05,3393.65,3266.94,3544.87,500.34,484.12,5.78,0000 0000 0000 0000 000000
2014-08-09 09:39:55,0.04,0.06,0.00,29.15,33.05,35.26,9.38,39.00,1010.76,2015.00,3393.04,3266.37,3544.18,500.44,484.21,5.82,0000 0000 0000 0000 000000
2014-08-09 09:44:57,0.00,0.07,0.00,29.15,33.07,35.29,9.36,38.96,1010.76,2015.00,3392.97,3266.01,3544.00,499.91,483.59,5.86,0000 0000 0000 0000 000000
2014-08-09 09:49:58,0.00,0.07,0.00,29.19,33.10,35.31,9.22,39.00,1010.76,2014.98,3392.61,3266.00,3543.96,499.49,483.10,5.90,0000 0000 0000 0000 000000
2014-08-09 09:54:59,0.00,0.07,0.00,29.22,33.12,35.33,9.28,39.00,1010.76,2014.88,3392.16,3265.94,3543.58,499.98,483.61,5.94,0000 0000 0000 0000 000000
2014-08-09 10:00:01,-0.01,0.07,0.00,29.24,33.15,35.35,9.30,39.04,1010.76,2014.54,3392.00,3265.42,3543.07,500.00,483.72,5.99,0000 0000 0000 0000 000000
2014-08-09 10:05:02,-0.03,0.07,0.00,29.26,33.17,35.37,9.47,39.25,1010.77,2014.23,3391.99,3265.15,3543.00,500.48,484.02,6.03,0000 0000 0000 0000 000000
2014-08-09 10:10:03,-0.00,0.06,0.00,29.24,33.19,35.40,9.37,39.18,1010.77,2014.04,3391.90,3265.01,3542.97,500.33,483.79,6.07,0000 0000 0000 0000 000000
2014-08-09 10:15:04,0.01,0.06,0.00,29.24,33.21,35.43,9.31,39.25,1010.76,2014.01,3391.37,3265.00,3542.70,500.09,483.60,6.11,0000 0000 0000 0000 000000
2014-08-09 10:20:05,0.01,0.07,0.00,29.23,33.22,35.45,9.29,39.20,1010.76,2014.00,3391.05,3264.94,3542.16,499.64,483.27,6.15,0000 0000 0000 0000 000000
2014-08-09 10:25:06,0.01,0.07,0.00,29.19,33.25,35.47,9.31,38.96,1010.76,2014.00,3391.00,3264.70,3542.01,500.14,483.59,6.19,0000 0000 0000 0000 000000
2014-08-09 10:30:07,0.01,0.07,0.00,29.20,33.27,35.49,9.25,38.91,1010.76,2013.99,3391.00,3264.25,3542.00,499.81,483.52,6.24,0000 0000 0000 0000 000000
2014-08-09 10:35:08,0.00,0.07,0.00,29.19,33.28,35.50,9.33,38.92,1010.76,2013.99,3391.00,3264.11,3541.99,499.77,483.71,6.28,0000 0000 0000 0000 000000
2014-08-09 10:40:09,-0.00,0.07,0.00,29.20,33.30,35.51,9.31,39.02,1010.76,2013.95,3390.98,3264.01,3541.95,499.87,483.55,6.32,0000 0000 0000 0000 000000
2014-08-09 10:45:10,-0.00,0.07,0.00,29.20,33.31,35.52,9.43,39.21,1010.75,2013.90,3390.92,3264.00,3541.74,500.13,483.81,6.36,0000 0000 0000 0000 000000
2014-08-09 10:50:11,-0.00,0.07,0.00,29.20,33.32,35.54,9.31,38.99,1010.76,2013.79,3390.72,3263.99,3541.34,500.12,483.60,6.40,0000 0000 0000 0000 000000
2014-08-09 10:55:12,-0.03,0.07,0.00,29.22,33.33,35.54,9.29,38.90,1010.76,2013.39,3390.17,3263.97,3541.06,499.87,483.54,6.44,0000 0000 0000 0000 000000
2014-08-09 11:00:13,-0.01,0.06,0.00,29.23,33.35,35.56,9.42,38.98,1010.76,2013.16,3390.01,3263.87,3541.00,500.31,483.94,6.49,0000 0000 0000 0000 000000
2014-08-09 11:05:14,-0.00,0.06,0.00,29.21,33.35,35.57,9.36,39.00,1010.75,2013.10,3390.00,3263.67,3541.00,499.92,483.59,6.53,0000 0000 0000 0000 000000
2014-08-09 11:10:15,0.01,0.06,0.00,29.18,33.37,35.59,9.38,39.00,1010.74,2013.02,3390.00,3263.18,3540.98,500.55,484.12,6.57,0000 0000 0000 0000 000000
2014-08-09 11:15:16,0.00,0.06,0.00,29.17,33.37,35.61,9.22,38.84,1010.76,2013.01,3389.99,3263.11,3540.95,500.00,483.55,6.61,0000 0000 0000 0000 000000
2014-08-09 11:20:16,0.00,0.06,0.00,29.15,33.38,35.61,9.32,38.96,1010.76,2013.00,3389.97,3263.04,3540.93,500.07,483.76,6.65,0000 0000 0000 0000 000000
2014-08-09 11:25:17,0.00,0.06,0.00,29.10,33.39,35.62,9.25,39.14,1010.76,2013.00,3389.96,3263.02,3540.85,499.82,483.68,6.70,0000 0000 0000 0000 000000
2014-08-09 11:30:18,0.00,0.07,0.00,29.08,33.40,35.62,9.41,39.16,1010.76,2013.00,3389.86,3263.01,3540.64,500.38,484.36,6.74,0000 0000 0000 0000 000000
2014-08-09 11:35:19,0.02,0.07,0.00,29.07,33.40,35.62,9.37,39.06,1010.76,2013.00,3389.25,3263.00,3540.32,499.84,483.76,6.78,0000 0000 0000 0000 000000
2014-08-09 11:40:20,0.00,0.07,0.00,29.03,33.40,35.65,9.39,39.10,1010.76,2013.00,3389.09,3263.00,3540.20,500.37,484.07,6.82,0000 0000 0000 0000 000000
2014-08-09 11:45:21,0.00,0.07,0.00,29.00,33.40,35.64,9.33,39.05,1010.76,2013.00,3389.04,3263.00,3540.12,500.19,484.21,6.86,0000 0000 0000 0000 000000
2014-08-09 11:50:23,-0.00,0.07,0.00,28.99,33.40,35.63,9.26,39.01,1010.76,2013.00,3389.08,3263.00,3540.23,499.84,483.91,6.91,0000 0000 0000 0000 000000
2014-08-09 11:55:24,0.00,0.07,0.00,28.96,33.40,35.63,9.34,38.84,1010.76,2013.00,3389.07,3263.00,3540.18,500.19,484.33,6.95,0000 0000 0000 0000 000000
2014-08-09 12:00:25,0.00,0.07,0.00,28.95,33.40,35.63,9.36,39.02,1010.76,2013.00,3389.03,3263.00,3540.14,500.07,484.15,6.99,0000 0000 0000 0000 000000
2014-08-09 12:05:26,0.00,0.07,0.00,28.92,33.40,35.63,9.32,39.08,1010.64,2013.00,3389.05,3263.00,3540.18,499.89,484.01,7.03,0000 0000 0000 0000 000000
2014-08-09 12:10:27,0.00,0.07,0.00,28.89,33.38,35.62,9.45,39.29,1010.54,2013.00,3389.02,3263.00,3540.10,500.05,484.14,7.07,0000 0000 0000 0000 000000
2014-08-09 12:15:28,-0.00,0.07,0.00,28.87,33.37,35.61,9.34,39.13,1010.58,2013.00,3389.02,3263.00,3540.17,499.90,484.09,7.11,0000 0000 0000 0000 000000
2014-08-09 12:20:29,-0.00,0.07,0.00,28.84,33.37,35.59,9.35,38.98,1010.66,2013.00,3389.08,3263.01,3540.59,500.11,484.31,7.16,0000 0000 0000 0000 000000
2014-08-09 12:25:30,-0.00,0.07,0.00,28.81,33.37,35.59,9.34,39.04,1010.72,2013.01,3389.13,3263.02,3540.72,499.84,484.26,7.20,0000 0000 0000 0000 000000
2014-08-09 12:30:31,0.00,0.07,0.00,28.79,33.35,35.57,9.37,38.92,1010.72,2013.00,3389.09,3263.02,3540.55,500.06,484.36,7.24,0000 0000 0000 0000 000000
2014-08-09 12:35:32,-0.00,0.07,0.00,28.78,33.35,35.56,9.29,39.02,1010.76,2013.00,3389.07,3263.02,3540.71,499.95,484.33,7.28,0000 0000 0000 0000 000000
2014-08-09 12:40:33,-0.00,0.07,0.00,28.75,33.35,35.57,9.31,39.13,1010.73,2013.01,3389.19,3263.05,3540.86,500.01,484.37,7.32,0000 0000 0000 0000 000000
2014-08-09 12:45:35,0.00,0.07,0.00,28.73,33.32,35.56,9.32,39.08,1010.62,2013.01,3389.25,3263.12,3540.93,499.78,484.10,7.36,0000 0000 0000 0000 000000
2014-08-09 12:50:36,-0.01,0.07,0.00,28.71,33.32,35.53,9.32,39.13,1010.74,2013.03,3389.44,3263.25,3540.96,499.85,484.39,7.41,0000 0000 0000 0000 000000
2014-08-09 12:55:36,0.00,0.06,0.00,28.67,33.31,35.52,9.35,39.28,1010.69,2013.11,3389.70,3263.57,3540.99,500.40,484.82,7.45,0000 0000 0000 0000 000000
2014-08-09 13:00:37,-0.00,0.06,0.00,28.64,33.30,35.52,9.31,39.30,1010.56,2013.15,3389.83,3263.77,3540.99,499.51,484.03,7.49,0000 0000 0000 0000 000000
2014-08-09 13:05:38,0.01,0.07,0.00,28.62,33.29,35.51,9.34,39.47,1010.42,2013.31,3389.95,3263.93,3541.00,500.04,484.52,7.53,0000 0000 0000 0000 000000